| time (UTC) | temp F | wind direction | speed knots | gust knots | rain 1hr in | rain 24hr in | rain mn in | humidity % | barometer mb |
| 20260509173506 | 52 | 201 | 0.9 | 7.0 | 0.01 | 0.28 | 0.28 | 91 | 1009.5 |
| 20260509173046 | 51 | 242 | 2.6 | 7.8 | 0.01 | 0.28 | 0.28 | 91 | 1010.9 |
| 20260509173020 | 51 | 240 | 3.5 | 7.8 | 0.01 | 0.28 | 0.28 | 91 | 1009.6 |
| 20260509172512 | 51 | 266 | 3.5 | 7.8 | 0.01 | 0.28 | 0.28 | 91 | 1009.5 |
| 20260509172011 | 51 | 247 | 2.6 | 7.8 | 0.01 | 0.28 | 0.28 | 91 | 1009.5 |
| 20260509171550 | 51 | 227 | 1.7 | 6.1 | 0.01 | 0.28 | 0.28 | 91 | 1010.9 |
| 20260509171522 | 51 | 225 | 1.7 | 6.1 | 0.01 | 0.28 | 0.28 | 91 | 1009.5 |
| 20260509171005 | 51 | 267 | 2.6 | 8.7 | 0.01 | 0.28 | 0.28 | 91 | 1009.5 |
| 20260509170508 | 52 | 207 | 2.6 | 8.7 | 0.01 | 0.28 | 0.28 | 91 | 1009.5 |
| 20260509170050 | 52 | 226 | 0.9 | 6.1 | 0.01 | 0.28 | 0.28 | 91 | 1010.7 |
| 20260509170020 | 52 | 232 | 0.9 | 6.1 | 0.02 | 0.28 | 0.28 | 91 | 1009.3 |
| 20260509165506 | 52 | 267 | 1.7 | 8.7 | 0.01 | 0.27 | 0.27 | 91 | 1009.5 |
| 20260509165008 | 52 | 144 | 1.7 | 8.7 | 0.01 | 0.27 | 0.27 | 91 | 1009.5 |
| 20260509164547 | 52 | 233 | 2.6 | 6.1 | 0.01 | 0.27 | 0.27 | 91 | 1010.8 |
| 20260509164521 | 52 | 200 | 2.6 | 6.1 | 0.01 | 0.27 | 0.27 | 91 | 1009.5 |
| 20260509164008 | 52 | 254 | 1.7 | 8.7 | 0.01 | 0.27 | 0.27 | 91 | 1009.5 |
| 20260509163509 | 52 | 188 | 1.7 | 8.7 | 0.02 | 0.27 | 0.27 | 91 | 1009.5 |
| 20260509163049 | 52 | 233 | 2.6 | 7.8 | 0.02 | 0.27 | 0.27 | 91 | 1010.9 |
| 20260509163035 | 52 | 204 | 2.6 | 7.8 | 0.02 | 0.27 | 0.27 | 91 | 1009.6 |
| 20260509162517 | 51 | 279 | 0.9 | 7.8 | 0.02 | 0.27 | 0.27 | 91 | 1009.6 |
| 20260509162008 | 51 | 254 | 2.6 | 7.8 | 0.03 | 0.27 | 0.27 | 91 | 1009.7 |
| 20260509161542 | 51 | 256 | 3.5 | 7.0 | 0.03 | 0.27 | 0.27 | 91 | 1011.1 |
| 20260509161528 | 51 | 201 | 3.5 | 7.0 | 0.03 | 0.27 | 0.27 | 91 | 1009.8 |
| 20260509161009 | 51 | 200 | 2.6 | 7.8 | 0.03 | 0.27 | 0.27 | 91 | 1009.8 |
| 20260509160509 | 51 | 310 | 2.6 | 7.8 | 0.04 | 0.27 | 0.27 | 91 | 1009.8 |
| 20260509160049 | 51 | 257 | 1.7 | 7.8 | 0.03 | 0.26 | 0.26 | 91 | 1011.2 |
| 20260509160021 | 51 | 273 | 2.6 | 7.8 | 0.03 | 0.26 | 0.26 | 92 | 1009.8 |
| 20260509155507 | 51 | 290 | 2.6 | 7.0 | 0.03 | 0.26 | 0.26 | 91 | 1009.8 |
| 20260509155007 | 51 | 243 | 2.6 | 7.8 | 0.04 | 0.26 | 0.26 | 91 | 1009.9 |
| 20260509154549 | 51 | 213 | 2.6 | 7.8 | 0.04 | 0.26 | 0.26 | 91 | 1011.4 |
| 20260509154521 | 51 | 218 | 2.6 | 7.8 | 0.04 | 0.26 | 0.26 | 91 | 1009.8 |
| 20260509154010 | 51 | 232 | 2.6 | 7.8 | 0.04 | 0.26 | 0.26 | 91 | 1009.9 |
| 20260509153507 | 51 | 263 | 1.7 | 7.8 | 0.03 | 0.25 | 0.25 | 91 | 1009.9 |
| 20260509153058 | 50 | 209 | 1.7 | 7.0 | 0.03 | 0.25 | 0.25 | 91 | 1011.2 |
| 20260509153040 | 50 | 213 | 1.7 | 7.0 | 0.03 | 0.25 | 0.25 | 91 | 1009.8 |
| 20260509152511 | 50 | 209 | 1.7 | 10.4 | 0.03 | 0.25 | 0.25 | 91 | 1009.8 |
| 20260509152013 | 50 | 257 | 3.5 | 10.4 | 0.02 | 0.24 | 0.24 | 91 | 1009.8 |
| 20260509151548 | 50 | 239 | 3.5 | 10.4 | 0.02 | 0.24 | 0.24 | 91 | 1011.3 |
| 20260509151520 | 50 | 215 | 2.6 | 10.4 | 0.03 | 0.24 | 0.24 | 91 | 1009.8 |
| 20260509151008 | 51 | 237 | 3.5 | 7.8 | 0.03 | 0.24 | 0.24 | 91 | 1009.8 |
| 20260509150513 | 50 | 253 | 3.5 | 8.7 | 0.02 | 0.23 | 0.23 | 91 | 1009.9 |
| 20260509150047 | 50 | 267 | 4.3 | 8.7 | 0.02 | 0.23 | 0.23 | 91 | 1011.3 |
| 20260509150030 | 51 | 275 | 3.5 | 8.7 | 0.02 | 0.23 | 0.23 | 91 | 1009.9 |
| 20260509145510 | 51 | 79 | 2.6 | 7.8 | 0.02 | 0.23 | 0.23 | 91 | 1009.8 |
| 20260509145007 | 51 | 223 | 3.5 | 7.8 | 0.01 | 0.22 | 0.22 | 91 | 1009.9 |
| 20260509144547 | 51 | 257 | 2.6 | 7.8 | 0.01 | 0.22 | 0.22 | 91 | 1011.4 |
| 20260509144514 | 51 | 247 | 2.6 | 7.8 | 0.01 | 0.22 | 0.22 | 91 | 1009.9 |
| 20260509144003 | 51 | 253 | 4.3 | 7.8 | 0.02 | 0.22 | 0.22 | 91 | 1010.0 |
| 20260509143508 | 50 | 212 | 3.5 | 7.8 | 0.02 | 0.22 | 0.22 | 91 | 1010.0 |
| 20260509143042 | 51 | 267 | 1.7 | 7.0 | 0.02 | 0.22 | 0.22 | 91 | 1011.4 |
| 20260509143016 | 51 | 232 | 1.7 | 7.0 | 0.03 | 0.22 | 0.22 | 91 | 1010.0 |
| 20260509142504 | 51 | 227 | 2.6 | 7.0 | 0.03 | 0.22 | 0.22 | 91 | 1009.9 |
| 20260509142004 | 51 | 219 | 2.6 | 7.0 | 0.03 | 0.22 | 0.22 | 91 | 1009.9 |
| 20260509141546 | 51 | 230 | 2.6 | 7.8 | 0.03 | 0.21 | 0.21 | 92 | 1011.3 |
| 20260509141507 | 51 | 254 | 1.7 | 7.8 | 0.03 | 0.21 | 0.21 | 92 | 1010.0 |
| 20260509141007 | 50 | 261 | 1.7 | 7.8 | 0.03 | 0.21 | 0.21 | 91 | 1010.0 |
| 20260509140504 | 50 | 202 | 3.5 | 7.8 | 0.04 | 0.21 | 0.21 | 92 | 1009.9 |
| 20260509140052 | 50 | 234 | 2.6 | 8.7 | 0.04 | 0.21 | 0.21 | 92 | 1011.4 |
| 20260509140008 | 50 | 257 | 2.6 | 8.7 | 0.04 | 0.21 | 0.21 | 92 | 1010.0 |
| 20260509135504 | 50 | 221 | 1.7 | 8.7 | 0.04 | 0.21 | 0.21 | 91 | 1010.0 |
| 20260509135009 | 50 | 267 | 3.5 | 7.8 | 0.04 | 0.21 | 0.21 | 91 | 1010.1 |
| 20260509134547 | 49 | 259 | 2.6 | 8.7 | 0.05 | 0.21 | 0.21 | 91 | 1011.5 |
| 20260509134508 | 49 | 219 | 2.6 | 8.7 | 0.05 | 0.21 | 0.21 | 91 | 1010.1 |
| 20260509134007 | 49 | 194 | 2.6 | 8.7 | 0.04 | 0.20 | 0.20 | 91 | 1010.1 |
| 20260509133506 | 49 | 233 | 1.7 | 9.6 | 0.05 | 0.20 | 0.20 | 91 | 1010.2 |
| 20260509133046 | 49 | 245 | 4.3 | 9.6 | 0.05 | 0.20 | 0.20 | 91 | 1011.6 |
| 20260509133014 | 49 | 259 | 5.2 | 9.6 | 0.04 | 0.19 | 0.19 | 91 | 1010.2 |
| 20260509132508 | 49 | 259 | 1.7 | 7.8 | 0.05 | 0.19 | 0.19 | 92 | 1010.2 |
| 20260509132004 | 49 | 249 | 3.5 | 7.8 | 0.06 | 0.19 | 0.19 | 92 | 1010.2 |
| 20260509131547 | 49 | 0 | 2.6 | 7.0 | 0.05 | 0.18 | 0.18 | 92 | 1011.6 |
| 20260509131518 | 49 | 209 | 2.6 | 7.0 | 0.05 | 0.18 | 0.18 | 92 | 1010.2 |
| 20260509131007 | 50 | 242 | 2.6 | 7.0 | 0.06 | 0.18 | 0.18 | 92 | 1010.3 |
| 20260509130504 | 49 | 269 | 2.6 | 7.0 | 0.05 | 0.17 | 0.17 | 92 | 1010.2 |
| 20260509130046 | 49 | 294 | 2.6 | 7.0 | 0.06 | 0.17 | 0.17 | 92 | 1011.6 |
| 20260509130008 | 49 | 246 | 2.6 | 7.0 | 0.06 | 0.17 | 0.17 | 92 | 1010.2 |
| 20260509125509 | 49 | 221 | 1.7 | 7.0 | 0.06 | 0.17 | 0.17 | 92 | 1010.2 |
| 20260509125006 | 49 | 229 | 2.6 | 7.0 | 0.06 | 0.17 | 0.17 | 92 | 1010.3 |
| 20260509124547 | 49 | 246 | 1.7 | 6.1 | 0.06 | 0.16 | 0.16 | 92 | 1011.7 |
| 20260509124515 | 49 | 254 | 1.7 | 6.1 | 0.06 | 0.16 | 0.16 | 92 | 1010.4 |
| 20260509124005 | 49 | 213 | 0.9 | 6.1 | 0.06 | 0.16 | 0.16 | 91 | 1010.3 |
| 20260509123509 | 49 | 216 | 2.6 | 7.0 | 0.05 | 0.15 | 0.15 | 91 | 1010.3 |
| 20260509123049 | 49 | 273 | 1.7 | 7.0 | 0.05 | 0.15 | 0.15 | 91 | 1011.7 |
| 20260509123016 | 49 | 267 | 1.7 | 7.0 | 0.06 | 0.15 | 0.15 | 91 | 1010.3 |
| 20260509122506 | 49 | 268 | 2.6 | 7.8 | 0.05 | 0.14 | 0.14 | 91 | 1010.4 |
| 20260509122008 | 49 | 224 | 1.7 | 7.8 | 0.04 | 0.13 | 0.13 | 91 | 1010.3 |
| 20260509121547 | 49 | 217 | 2.6 | 6.1 | 0.05 | 0.13 | 0.13 | 91 | 1011.8 |
| 20260509121513 | 49 | 237 | 1.7 | 6.1 | 0.05 | 0.13 | 0.13 | 91 | 1010.5 |
| 20260509121009 | 49 | 234 | 3.5 | 7.0 | 0.04 | 0.12 | 0.12 | 91 | 1010.6 |
| 20260509120506 | 49 | 276 | 2.6 | 7.0 | 0.04 | 0.12 | 0.12 | 91 | 1010.6 |
| 20260509120012 | 49 | 225 | 1.7 | 7.0 | 0.04 | 0.11 | 0.11 | 91 | 1010.5 |
| 20260509115507 | 48 | 192 | 0.9 | 7.0 | 0.04 | 0.11 | 0.11 | 91 | 1010.4 |
| 20260509115003 | 48 | 248 | 2.6 | 7.0 | 0.05 | 0.11 | 0.11 | 91 | 1010.5 |
| 20260509114548 | 48 | 0 | 0.9 | 4.3 | 0.04 | 0.10 | 0.10 | 91 | 1011.9 |
| 20260509114511 | 48 | 201 | 0.9 | 4.3 | 0.04 | 0.10 | 0.10 | 91 | 1010.4 |
| 20260509114005 | 48 | 259 | 0.0 | 4.3 | 0.04 | 0.10 | 0.10 | 91 | 1010.4 |
| 20260509113507 | 48 | 263 | 1.7 | 5.2 | 0.05 | 0.10 | 0.10 | 91 | 1010.4 |
| 20260509113050 | 48 | 255 | 1.7 | 7.0 | 0.05 | 0.10 | 0.10 | 90 | 1011.9 |
| 20260509113016 | 48 | 219 | 1.7 | 7.0 | 0.04 | 0.09 | 0.09 | 90 | 1010.4 |
| 20260509112506 | 48 | 207 | 1.7 | 7.0 | 0.04 | 0.09 | 0.09 | 90 | 1010.4 |
| 20260509112006 | 48 | 188 | 0.9 | 4.3 | 0.04 | 0.09 | 0.09 | 90 | 1010.3 |
| 20260509111542 | 48 | 271 | 0.9 | 4.3 | 0.03 | 0.08 | 0.08 | 90 | 1011.8 |
| 20260509111518 | 48 | 221 | 0.9 | 3.5 | 0.03 | 0.08 | 0.08 | 90 | 1010.3 |
| 20260509111004 | 48 | 236 | 1.7 | 6.1 | 0.03 | 0.08 | 0.08 | 90 | 1010.3 |
| 20260509110509 | 48 | 240 | 2.6 | 6.1 | 0.04 | 0.08 | 0.08 | 89 | 1010.2 |
| 20260509110045 | 48 | 243 | 2.6 | 10.4 | 0.03 | 0.07 | 0.07 | 89 | 1011.7 |
| 20260509110021 | 48 | 267 | 2.6 | 10.4 | 0.03 | 0.07 | 0.07 | 89 | 1010.3 |
| 20260509105506 | 48 | 240 | 2.6 | 10.4 | 0.03 | 0.07 | 0.07 | 89 | 1010.3 |
| 20260509105007 | 48 | 217 | 5.2 | 10.4 | 0.03 | 0.06 | 0.06 | 89 | 1010.3 |
| 20260509104548 | 48 | 271 | 5.2 | 10.4 | 0.03 | 0.06 | 0.06 | 88 | 1011.7 |
| 20260509104520 | 48 | 265 | 5.2 | 10.4 | 0.03 | 0.06 | 0.06 | 88 | 1010.3 |
| 20260509104008 | 48 | 267 | 7.0 | 11.3 | 0.03 | 0.06 | 0.06 | 88 | 1010.2 |
| 20260509103508 | 48 | 260 | 7.0 | 11.3 | 0.03 | 0.05 | 0.05 | 88 | 1010.2 |
| 20260509103042 | 48 | 251 | 5.2 | 13.0 | 0.03 | 0.05 | 0.05 | 88 | 1011.7 |
| 20260509103014 | 48 | 251 | 4.3 | 11.3 | 0.03 | 0.05 | 0.05 | 88 | 1010.3 |
| 20260509102505 | 48 | 285 | 7.8 | 13.0 | 0.03 | 0.05 | 0.05 | 87 | 1010.3 |
| 20260509102007 | 48 | 244 | 7.8 | 13.9 | 0.04 | 0.05 | 0.05 | 88 | 1010.3 |
| 20260509101552 | 48 | 262 | 7.0 | 13.9 | 0.04 | 0.05 | 0.05 | 88 | 1011.7 |
| 20260509101513 | 48 | 271 | 8.7 | 13.9 | 0.04 | 0.05 | 0.05 | 88 | 1010.3 |
| 20260509101012 | 48 | 250 | 7.8 | 12.2 | 0.04 | 0.05 | 0.05 | 88 | 1010.3 |
| 20260509100507 | 48 | 246 | 5.2 | 11.3 | 0.04 | 0.04 | 0.04 | 88 | 1010.4 |
| 20260509100048 | 48 | 257 | 4.3 | 10.4 | 0.04 | 0.04 | 0.04 | 88 | 1011.9 |
| 20260509100021 | 48 | 246 | 4.3 | 10.4 | 0.04 | 0.04 | 0.04 | 88 | 1010.3 |
| 20260509095510 | 48 | 255 | 6.1 | 12.2 | 0.04 | 0.04 | 0.04 | 88 | 1010.4 |
| 20260509095007 | 48 | 256 | 6.1 | 13.0 | 0.03 | 0.03 | 0.03 | 88 | 1010.6 |
| 20260509094548 | 48 | 238 | 6.1 | 13.0 | 0.03 | 0.03 | 0.03 | 87 | 1012.0 |
| 20260509094523 | 48 | 238 | 5.2 | 13.0 | 0.03 | 0.03 | 0.03 | 87 | 1010.7 |
| 20260509094006 | 48 | 259 | 7.8 | 12.2 | 0.03 | 0.03 | 0.03 | 87 | 1010.7 |
| 20260509093506 | 48 | 273 | 6.1 | 11.3 | 0.02 | 0.02 | 0.02 | 86 | 1010.9 |
| 20260509093050 | 49 | 260 | 7.0 | 11.3 | 0.02 | 0.02 | 0.02 | 85 | 1012.3 |
| 20260509093026 | 49 | 265 | 7.0 | 11.3 | 0.02 | 0.02 | 0.02 | 85 | 1010.9 |
| 20260509092508 | 49 | 259 | 7.8 | 12.2 | 0.02 | 0.02 | 0.02 | 84 | 1010.8 |
| 20260509092009 | 49 | 272 | 6.1 | 12.2 | 0.01 | 0.01 | 0.01 | 83 | 1010.9 |
| 20260509091602 | 50 | 271 | 7.8 | 16.5 | 0.01 | 0.01 | 0.01 | 82 | 1012.2 |
| 20260509091518 | 50 | 248 | 7.8 | 16.5 | 0.01 | 0.01 | 0.01 | 82 | 1010.7 |
| 20260509091008 | 50 | 252 | 8.7 | 16.5 | 0.01 | 0.01 | 0.01 | 82 | 1010.6 |
| 20260509090510 | 47 | 258 | 2.6 | 4.3 | 0.00 | 0.00 | 0.00 | 87 | 1010.6 |
| 20260509090047 | 47 | 290 | 0.0 | 1.7 | 0.00 | 0.00 | 0.00 | 86 | 1012.0 |
| 20260509090022 | 47 | 261 | 0.9 | 1.7 | 0.00 | 0.00 | 0.00 | 86 | 1010.5 |
| 20260509085508 | 47 | 258 | 0.0 | 2.6 | 0.00 | 0.00 | 0.00 | 86 | 1010.4 |
| 20260509085009 | 47 | 289 | 0.9 | 2.6 | 0.00 | 0.00 | 0.00 | 85 | 1010.5 |
| 20260509084554 | 47 | 0 | 0.0 | 2.6 | 0.00 | 0.00 | 0.00 | 85 | 1011.9 |
| 20260509084524 | 47 | 237 | 0.0 | 2.6 | 0.00 | 0.00 | 0.00 | 85 | 1010.3 |
| 20260509084009 | 47 | 246 | 0.0 | 2.6 | 0.00 | 0.00 | 0.00 | 85 | 1010.4 |
| 20260509083509 | 47 | 214 | 0.9 | 3.5 | 0.00 | 0.00 | 0.00 | 85 | 1010.3 |
| 20260509083053 | 47 | 263 | 0.9 | 4.3 | 0.00 | 0.00 | 0.00 | 85 | 1011.6 |
| 20260509083018 | 47 | 263 | 0.9 | 4.3 | 0.00 | 0.00 | 0.00 | 85 | 1010.2 |
| 20260509082506 | 47 | 269 | 1.7 | 4.3 | 0.00 | 0.00 | 0.00 | 84 | 1010.1 |
| 20260509082008 | 47 | 147 | 0.0 | 2.6 | 0.00 | 0.00 | 0.00 | 84 | 1010.0 |
| 20260509081543 | 47 | 0 | 0.0 | 3.5 | 0.00 | 0.00 | 0.00 | 84 | 1011.5 |
| 20260509081523 | 47 | 265 | 0.0 | 3.5 | 0.00 | 0.00 | 0.00 | 84 | 1010.0 |
| 20260509081011 | 47 | 259 | 1.7 | 3.5 | 0.00 | 0.00 | 0.00 | 84 | 1010.1 |
| 20260509080507 | 47 | 261 | 0.9 | 3.5 | 0.00 | 0.00 | 0.00 | 84 | 1010.0 |
| 20260509080051 | 47 | 0 | 0.0 | 0.0 | 0.00 | 0.00 | 0.00 | 84 | 1011.3 |
| 20260509080020 | 47 | 251 | 0.0 | 0.0 | 0.00 | 0.00 | 0.00 | 84 | 1009.8 |
| 20260509075506 | 47 | 297 | 0.0 | 0.0 | 0.00 | 0.00 | 0.00 | 84 | 1009.8 |
| 20260509075007 | 47 | 285 | 0.0 | 0.0 | 0.00 | 0.00 | 0.00 | 84 | 1009.8 |
| 20260509074551 | 47 | 0 | 0.0 | 0.0 | 0.00 | 0.00 | 0.00 | 84 | 1011.3 |
| 20260509074523 | 47 | 283 | 0.0 | 0.0 | 0.00 | 0.00 | 0.00 | 84 | 1009.9 |
| 20260509074007 | 47 | 247 | 0.0 | 0.0 | 0.00 | 0.00 | 0.00 | 84 | 1009.8 |
| 20260509073507 | 47 | 247 | 0.0 | 0.0 | 0.00 | 0.00 | 0.00 | 84 | 1009.8 |
| 20260509073112 | 47 | 0 | 0.0 | 0.0 | 0.00 | 0.00 | 0.00 | 84 | 1011.2 |
| 20260509073022 | 47 | 238 | 0.0 | 0.0 | 0.00 | 0.00 | 0.00 | 84 | 1009.8 |
| 20260509072508 | 47 | 272 | 0.0 | 0.0 | 0.00 | 0.00 | 0.00 | 84 | 1009.7 |
| 20260509072013 | 47 | 255 | 0.0 | 0.0 | 0.00 | 0.00 | 0.00 | 84 | 1009.6 |
| 20260509071543 | 47 | 0 | 0.0 | 2.6 | 0.00 | 0.00 | 0.00 | 84 | 1011.1 |
| 20260509071524 | 47 | 233 | 0.0 | 1.7 | 0.00 | 0.00 | 0.00 | 84 | 1009.7 |
| 20260509071007 | 47 | 254 | 0.0 | 3.5 | 0.00 | 0.00 | 0.00 | 83 | 1009.7 |
| 20260509070509 | 47 | 269 | 1.7 | 3.5 | 0.00 | 0.00 | 0.00 | 82 | 1009.8 |
| 20260509070054 | 47 | 0 | 0.0 | 0.0 | 0.00 | 0.00 | 0.00 | 82 | 1011.1 |
| 20260509070024 | 47 | 44 | 0.0 | 0.0 | 0.00 | 0.00 | 0.00 | 82 | 1009.7 |
| 20260509065510 | 48 | 44 | 0.0 | 0.0 | 0.00 | 0.00 | 0.00 | 81 | 1009.7 |
| 20260509065009 | 48 | 75 | 0.0 | 0.0 | 0.00 | 0.00 | 0.00 | 81 | 1009.7 |
| 20260509064550 | 48 | 0 | 0.0 | 0.0 | 0.00 | 0.00 | 0.00 | 81 | 1011.1 |
| 20260509064519 | 48 | 75 | 0.0 | 0.0 | 0.00 | 0.00 | 0.00 | 81 | 1009.7 |
| 20260509064009 | 48 | 75 | 0.0 | 0.0 | 0.00 | 0.00 | 0.00 | 81 | 1009.7 |
| 20260509063511 | 48 | 75 | 0.0 | 0.0 | 0.00 | 0.00 | 0.00 | 80 | 1009.9 |
| 20260509063046 | 48 | 0 | 0.0 | 0.0 | 0.00 | 0.00 | 0.00 | 80 | 1011.5 |
| 20260509063023 | 48 | 75 | 0.0 | 0.0 | 0.00 | 0.00 | 0.00 | 80 | 1010.1 |
| 20260509062511 | 48 | 75 | 0.0 | 0.0 | 0.00 | 0.00 | 0.00 | 80 | 1010.2 |
| 20260509062009 | 49 | 75 | 0.0 | 0.0 | 0.00 | 0.00 | 0.00 | 79 | 1010.3 |
| 20260509061543 | 49 | 0 | 0.0 | 0.0 | 0.00 | 0.00 | 0.00 | 79 | 1011.9 |
| 20260509061528 | 49 | 75 | 0.0 | 0.0 | 0.00 | 0.00 | 0.00 | 79 | 1010.5 |
| 20260509061010 | 49 | 75 | 0.0 | 0.0 | 0.00 | 0.00 | 0.00 | 79 | 1010.6 |
| 20260509060509 | 49 | 90 | 0.0 | 0.0 | 0.00 | 0.00 | 0.00 | 78 | 1010.6 |
| 20260509060057 | 49 | 0 | 0.0 | 0.0 | 0.00 | 0.00 | 0.00 | 78 | 1012.0 |
| 20260509060033 | 49 | 90 | 0.0 | 0.0 | 0.00 | 0.00 | 0.00 | 78 | 1010.7 |
| 20260509055504 | 50 | 90 | 0.0 | 0.0 | 0.00 | 0.00 | 0.00 | 77 | 1010.7 |
| 20260509055010 | 50 | 90 | 0.0 | 1.7 | 0.00 | 0.00 | 0.00 | 76 | 1010.7 |
| 20260509054555 | 50 | 0 | 0.0 | 3.5 | 0.00 | 0.00 | 0.00 | 76 | 1012.2 |
| 20260509054508 | 50 | 13 | 0.0 | 2.6 | 0.00 | 0.00 | 0.00 | 76 | 1010.8 |
| 20260509054009 | 50 | 331 | 1.7 | 3.5 | 0.00 | 0.00 | 0.00 | 76 | 1011.0 |
| 20260509053506 | 50 | 325 | 0.9 | 3.5 | 0.00 | 0.00 | 0.00 | 76 | 1011.1 |
| 20260509053051 | 50 | 0 | 0.0 | 2.6 | 0.00 | 0.00 | 0.00 | 75 | 1012.7 |
| 20260509053006 | 50 | 34 | 0.0 | 2.6 | 0.00 | 0.00 | 0.00 | 75 | 1011.2 |
| 20260509052508 | 50 | 34 | 0.0 | 2.6 | 0.00 | 0.00 | 0.00 | 75 | 1011.3 |
| 20260509052005 | 50 | 86 | 0.0 | 2.6 | 0.00 | 0.00 | 0.00 | 75 | 1011.2 |
| 20260509051545 | 50 | 86 | 0.9 | 2.6 | 0.00 | 0.00 | 0.00 | 76 | 1012.7 |
| 20260509051504 | 50 | 86 | 0.9 | 2.6 | 0.00 | 0.00 | 0.00 | 76 | 1011.2 |
| 20260509051003 | 50 | 86 | 0.0 | 2.6 | 0.00 | 0.00 | 0.00 | 76 | 1011.3 |
| 20260509050506 | 50 | 84 | 1.7 | 2.6 | 0.00 | 0.00 | 0.00 | 76 | 1011.3 |
| 20260509050050 | 50 | 0 | 0.0 | 1.7 | 0.00 | 0.00 | 0.00 | 76 | 1012.9 |
| 20260509050029 | 50 | 92 | 0.0 | 1.7 | 0.00 | 0.00 | 0.00 | 76 | 1011.4 |
| 20260509045505 | 50 | 92 | 0.0 | 2.6 | 0.00 | 0.00 | 0.00 | 75 | 1011.4 |
| 20260509045003 | 50 | 92 | 0.9 | 3.5 | 0.00 | 0.00 | 0.00 | 75 | 1011.4 |
| 20260509044546 | 51 | 89 | 2.6 | 3.5 | 0.00 | 0.00 | 0.00 | 74 | 1012.9 |
| 20260509044512 | 51 | 85 | 2.6 | 3.5 | 0.00 | 0.00 | 0.00 | 73 | 1011.4 |
| 20260509044004 | 52 | 324 | 0.0 | 0.0 | 0.00 | 0.00 | 0.00 | 71 | 1011.4 |
| 20260509043502 | 52 | 324 | 0.0 | 0.0 | 0.00 | 0.00 | 0.00 | 71 | 1011.4 |
| 20260509043050 | 52 | 0 | 0.0 | 0.0 | 0.00 | 0.00 | 0.00 | 71 | 1012.7 |
| 20260509043021 | 52 | 324 | 0.0 | 0.0 | 0.00 | 0.00 | 0.00 | 71 | 1011.3 |
| 20260509042507 | 52 | 324 | 0.0 | 0.0 | 0.00 | 0.00 | 0.00 | 71 | 1011.3 |
| 20260509042017 | 52 | 324 | 0.0 | 1.7 | 0.00 | 0.00 | 0.00 | 71 | 1011.4 |
| 20260509041544 | 53 | 0 | 0.0 | 8.7 | 0.00 | 0.00 | 0.00 | 69 | 1012.8 |
| 20260509041516 | 53 | 324 | 0.0 | 8.7 | 0.00 | 0.00 | 0.00 | 70 | 1011.3 |
| 20260509041004 | 53 | 311 | 0.0 | 8.7 | 0.00 | 0.00 | 0.00 | 69 | 1011.3 |
| 20260509040506 | 53 | 352 | 3.5 | 8.7 | 0.00 | 0.00 | 0.00 | 70 | 1011.4 |
| 20260509040005 | 52 | 291 | 5.2 | 8.7 | 0.00 | 0.00 | 0.00 | 70 | 1011.5 |
| 20260509035508 | 50 | 336 | 0.0 | 2.6 | 0.00 | 0.00 | 0.00 | 75 | 1011.6 |
| 20260509035003 | 50 | 322 | 0.0 | 0.0 | 0.00 | 0.00 | 0.00 | 74 | 1011.6 |
| 20260509034550 | 50 | 0 | 0.0 | 0.0 | 0.00 | 0.00 | 0.00 | 75 | 1013.0 |
| 20260509034509 | 50 | 322 | 0.0 | 0.0 | 0.00 | 0.00 | 0.00 | 75 | 1011.5 |
| 20260509034003 | 50 | 345 | 0.0 | 0.0 | 0.00 | 0.00 | 0.00 | 75 | 1011.6 |
| 20260509033503 | 49 | 91 | 0.0 | 0.0 | 0.00 | 0.00 | 0.00 | 76 | 1011.6 |
| 20260509033047 | 49 | 0 | 0.0 | 0.0 | 0.00 | 0.00 | 0.00 | 77 | 1013.1 |
| 20260509033005 | 49 | 355 | 0.0 | 0.0 | 0.00 | 0.00 | 0.00 | 77 | 1011.7 |
| 20260509032509 | 49 | 335 | 0.0 | 0.0 | 0.00 | 0.00 | 0.00 | 77 | 1011.7 |
| 20260509032010 | 49 | 335 | 0.0 | 0.0 | 0.00 | 0.00 | 0.00 | 78 | 1011.7 |
| 20260509031548 | 49 | 0 | 0.0 | 0.0 | 0.00 | 0.00 | 0.00 | 78 | 1013.1 |
| 20260509031530 | 49 | 335 | 0.0 | 0.0 | 0.00 | 0.00 | 0.00 | 78 | 1011.7 |
| 20260509031010 | 49 | 335 | 0.0 | 0.0 | 0.00 | 0.00 | 0.00 | 79 | 1011.6 |
| 20260509030507 | 49 | 224 | 0.0 | 0.0 | 0.00 | 0.00 | 0.00 | 79 | 1011.7 |
| 20260509030049 | 49 | 0 | 0.0 | 0.0 | 0.00 | 0.00 | 0.00 | 79 | 1013.2 |
| 20260509030032 | 49 | 224 | 0.0 | 0.0 | 0.00 | 0.00 | 0.00 | 79 | 1011.7 |
| 20260509025511 | 49 | 224 | 0.0 | 0.0 | 0.00 | 0.00 | 0.00 | 79 | 1011.6 |
| 20260509025004 | 49 | 224 | 0.0 | 0.0 | 0.00 | 0.00 | 0.00 | 78 | 1011.7 |
| 20260509024549 | 49 | 0 | 0.0 | 0.0 | 0.00 | 0.00 | 0.00 | 77 | 1013.1 |
| 20260509024506 | 50 | 224 | 0.0 | 0.0 | 0.00 | 0.00 | 0.00 | 77 | 1011.7 |
| 20260509024007 | 50 | 224 | 0.0 | 0.0 | 0.00 | 0.00 | 0.00 | 75 | 1011.7 |
| 20260509023506 | 50 | 224 | 0.0 | 0.0 | 0.00 | 0.00 | 0.00 | 75 | 1011.8 |
| 20260509023046 | 50 | 0 | 0.0 | 0.0 | 0.00 | 0.00 | 0.00 | 75 | 1013.2 |
| 20260509023014 | 50 | 224 | 0.0 | 0.0 | 0.00 | 0.00 | 0.00 | 75 | 1011.8 |
| 20260509022510 | 50 | 224 | 0.0 | 0.0 | 0.00 | 0.00 | 0.00 | 75 | 1011.8 |
| 20260509022007 | 49 | 136 | 0.0 | 0.0 | 0.00 | 0.00 | 0.00 | 75 | 1011.8 |
| 20260509021548 | 49 | 0 | 0.0 | 0.0 | 0.00 | 0.00 | 0.00 | 75 | 1013.2 |
| 20260509021517 | 49 | 136 | 0.0 | 0.0 | 0.00 | 0.00 | 0.00 | 75 | 1011.8 |
| 20260509021003 | 49 | 136 | 0.0 | 0.0 | 0.00 | 0.00 | 0.00 | 76 | 1011.7 |
| 20260509020507 | 49 | 136 | 0.0 | 0.0 | 0.00 | 0.00 | 0.00 | 76 | 1011.7 |
| 20260509020044 | 50 | 0 | 0.0 | 0.0 | 0.00 | 0.00 | 0.00 | 75 | 1013.0 |
| 20260509020012 | 50 | 136 | 0.0 | 0.0 | 0.00 | 0.00 | 0.00 | 75 | 1011.6 |
| 20260509015508 | 50 | 136 | 0.0 | 0.0 | 0.00 | 0.00 | 0.00 | 75 | 1011.5 |
| 20260509015006 | 50 | 136 | 0.0 | 0.0 | 0.00 | 0.00 | 0.00 | 75 | 1011.4 |
| 20260509014550 | 50 | 0 | 0.0 | 0.0 | 0.00 | 0.00 | 0.00 | 75 | 1012.9 |
| 20260509014508 | 50 | 136 | 0.0 | 0.0 | 0.00 | 0.00 | 0.00 | 75 | 1011.6 |
| 20260509014009 | 51 | 136 | 0.0 | 0.9 | 0.00 | 0.00 | 0.00 | 74 | 1011.4 |
| 20260509013504 | 51 | 136 | 0.0 | 1.7 | 0.00 | 0.00 | 0.00 | 74 | 1011.4 |
| 20260509013051 | 51 | 136 | 0.9 | 1.7 | 0.00 | 0.00 | 0.00 | 73 | 1012.7 |
| 20260509013007 | 51 | 136 | 0.9 | 1.7 | 0.00 | 0.00 | 0.00 | 73 | 1011.4 |
| 20260509012505 | 51 | 136 | 0.0 | 0.0 | 0.00 | 0.00 | 0.00 | 73 | 1011.4 |
| 20260509012007 | 51 | 136 | 0.0 | 0.0 | 0.00 | 0.00 | 0.00 | 72 | 1011.3 |
| 20260509011604 | 52 | 0 | 0.0 | 0.0 | 0.00 | 0.00 | 0.00 | 72 | 1012.8 |
| 20260509011513 | 52 | 136 | 0.0 | 0.0 | 0.00 | 0.00 | 0.00 | 72 | 1011.3 |
| 20260509011008 | 52 | 136 | 0.0 | 0.0 | 0.00 | 0.00 | 0.00 | 72 | 1011.4 |
| 20260509010505 | 52 | 136 | 0.0 | 0.0 | 0.00 | 0.00 | 0.00 | 71 | 1011.4 |
| 20260509010050 | 52 | 0 | 0.0 | 0.0 | 0.00 | 0.00 | 0.00 | 71 | 1012.8 |
| 20260509010022 | 52 | 136 | 0.0 | 0.0 | 0.00 | 0.00 | 0.00 | 71 | 1011.3 |
| 20260509005509 | 52 | 136 | 0.0 | 0.0 | 0.00 | 0.00 | 0.00 | 70 | 1011.2 |
| 20260509005011 | 52 | 136 | 0.0 | 0.0 | 0.00 | 0.00 | 0.00 | 70 | 1011.3 |
| 20260509004605 | 52 | 0 | 0.0 | 0.0 | 0.00 | 0.00 | 0.00 | 70 | 1012.7 |
| 20260509004526 | 52 | 136 | 0.0 | 0.0 | 0.00 | 0.00 | 0.00 | 69 | 1011.3 |
| 20260509004006 | 53 | 136 | 0.0 | 0.0 | 0.00 | 0.00 | 0.00 | 69 | 1011.3 |
| 20260509003511 | 53 | 136 | 0.0 | 0.9 | 0.00 | 0.00 | 0.00 | 69 | 1011.3 |
| 20260509003050 | 53 | 0 | 0.0 | 0.9 | 0.00 | 0.00 | 0.00 | 69 | 1012.7 |
| 20260509003021 | 53 | 136 | 0.0 | 0.9 | 0.00 | 0.00 | 0.00 | 69 | 1011.3 |
| 20260509002509 | 53 | 136 | 0.0 | 0.9 | 0.00 | 0.00 | 0.00 | 69 | 1011.3 |
| 20260509002007 | 53 | 136 | 0.0 | 0.9 | 0.00 | 0.00 | 0.00 | 69 | 1011.2 |
| 20260509001549 | 53 | 0 | 0.0 | 0.9 | 0.00 | 0.00 | 0.00 | 68 | 1012.6 |
| 20260509001508 | 53 | 136 | 0.0 | 0.9 | 0.00 | 0.00 | 0.00 | 68 | 1011.1 |
| 20260509001004 | 53 | 136 | 0.0 | 0.9 | 0.00 | 0.00 | 0.00 | 67 | 1011.1 |
| 20260509000504 | 53 | 85 | 0.0 | 0.9 | 0.00 | 0.00 | 0.00 | 65 | 1011.1 |
| 20260509000053 | 53 | 0 | 0.0 | 0.9 | 0.00 | 0.00 | 0.00 | 65 | 1012.5 |
| 20260509000015 | 53 | 313 | 0.0 | 0.9 | 0.00 | 0.00 | 0.00 | 65 | 1011.1 |
| 20260508235508 | 54 | 103 | 0.0 | 0.9 | 0.00 | 0.00 | 0.00 | 64 | 1011.2 |
| 20260508235009 | 54 | 103 | 0.0 | 0.9 | 0.00 | 0.00 | 0.00 | 65 | 1011.2 |
| 20260508234548 | 54 | 0 | 0.0 | 1.7 | 0.00 | 0.00 | 0.00 | 65 | 1012.7 |
| 20260508234509 | 54 | 103 | 0.0 | 0.9 | 0.00 | 0.00 | 0.00 | 65 | 1011.3 |
| 20260508234009 | 54 | 316 | 0.0 | 1.7 | 0.00 | 0.00 | 0.00 | 64 | 1011.2 |
| 20260508233507 | 54 | 98 | 0.0 | 1.7 | 0.00 | 0.00 | 0.00 | 65 | 1011.3 |
| 20260508233048 | 54 | 0 | 0.0 | 0.9 | 0.00 | 0.00 | 0.00 | 65 | 1012.5 |
| 20260508233022 | 54 | 113 | 0.0 | 0.9 | 0.00 | 0.00 | 0.00 | 65 | 1011.1 |
| 20260508232510 | 54 | 250 | 0.0 | 0.0 | 0.00 | 0.00 | 0.00 | 65 | 1011.1 |
| 20260508231554 | 54 | 0 | 0.0 | 0.9 | 0.00 | 0.00 | 0.00 | 65 | 1012.4 |
| 20260508230044 | 54 | 0 | 0.0 | 2.6 | 0.00 | 0.00 | 0.00 | 68 | 1012.4 |
| 20260508224551 | 55 | 0 | 0.0 | 0.9 | 0.00 | 0.00 | 0.00 | 67 | 1012.4 |
| 20260508223056 | 55 | 0 | 0.0 | 3.5 | 0.00 | 0.00 | 0.00 | 64 | 1012.4 |
| 20260508221549 | 56 | 284 | 0.9 | 5.2 | 0.00 | 0.00 | 0.00 | 61 | 1012.4 |
| 20260508220056 | 56 | 165 | 0.9 | 3.5 | 0.00 | 0.00 | 0.00 | 66 | 1012.5 |
| 20260508214554 | 53 | 184 | 0.0 | 3.5 | 0.00 | 0.00 | 0.00 | 68 | 1012.7 |
| 20260508213049 | 53 | 298 | 2.6 | 7.8 | 0.00 | 0.00 | 0.00 | 68 | 1013.2 |
| 20260508211550 | 53 | 280 | 3.5 | 7.8 | 0.00 | 0.00 | 0.00 | 67 | 1013.0 |
| 20260508210049 | 52 | 273 | 3.5 | 7.8 | 0.00 | 0.00 | 0.00 | 68 | 1013.3 |
| 20260508204550 | 52 | 266 | 3.5 | 10.4 | 0.00 | 0.00 | 0.00 | 68 | 1013.5 |
| 20260508203050 | 53 | 227 | 4.3 | 9.6 | 0.00 | 0.00 | 0.00 | 69 | 1013.8 |
| 20260508201544 | 53 | 250 | 6.1 | 12.2 | 0.00 | 0.00 | 0.00 | 67 | 1013.7 |
| 20260508200045 | 53 | 277 | 6.1 | 12.2 | 0.00 | 0.00 | 0.00 | 67 | 1013.8 |
| 20260508194545 | 53 | 277 | 8.7 | 18.2 | 0.00 | 0.00 | 0.00 | 65 | 1014.0 |
| 20260508193103 | 54 | 298 | 7.0 | 15.6 | 0.00 | 0.00 | 0.00 | 63 | 1014.0 |
| 20260508191547 | 54 | 221 | 11.3 | 18.2 | 0.00 | 0.00 | 0.00 | 60 | 1013.9 |
| 20260508190050 | 55 | 251 | 11.3 | 20.9 | 0.00 | 0.00 | 0.00 | 59 | 1013.9 |
| 20260508184600 | 55 | 269 | 8.7 | 19.1 | 0.00 | 0.00 | 0.00 | 59 | 1013.9 |
| 20260508183050 | 55 | 292 | 11.3 | 21.7 | 0.00 | 0.00 | 0.00 | 57 | 1013.8 |
| 20260508181559 | 56 | 284 | 9.6 | 20.9 | 0.00 | 0.00 | 0.00 | 58 | 1013.7 |
| 20260508180049 | 56 | 237 | 10.4 | 19.1 | 0.00 | 0.00 | 0.00 | 56 | 1013.8 |
| 20260508174547 | 55 | 284 | 9.6 | 22.6 | 0.00 | 0.00 | 0.00 | 57 | 1014.1 |